Hourly Data Report for December 14, 2018

CARBERRY CS
MANITOBA
Current Station Operator: ECCC - MSC

49°54'20.900" N
99°21'26.800" W
383.50 m
5010547
71170
WZE

Download Data

Hourly Data (December 2018)
Hourly Data Report for December 14, 2018
TIME
LST
Temp Definition
°C
Dew Point Definition
°C
Rel Hum Definition
%
Precip. Amount Definition
mm

Wind Dir Definition
10's deg

Wind Spd Definition
km/h
Visibility Definition
km
Stn Press Definition
kPa
Hmdx Definition


Wind Chill Definition


Weather Definition


00:00 -1.7 -5.5 75 0.0 25 18   96.34   -7 LegendNANA
01:00 -2.2 -5.7 77 0.0 25 19   96.43   -8 LegendNANA
02:00 -2.9 -5.9 80 0.0 26 20   96.49   -9 LegendNANA
03:00 -3.6 -6.5 81 0.0 26 22   96.59   -10 LegendNANA
04:00 -6.4 -8.4 86 0.0 27 18   96.63   -13 LegendNANA
05:00 -4.6 -6.8 85 0.0 25 18   96.69   -11 LegendNANA
06:00 -4.6 -6.9 84 0.0 25 18   96.77   -11 LegendNANA
07:00 -4.9 -7.1 84 0.0 24 14   96.84   -10 LegendNANA
08:00 -6.4 -8.2 87 0.0 22 10   96.86   -11 LegendNANA
09:00 -5.4 -7.8 83 0.0 24 14   96.92   -11 LegendNANA
10:00 -4.3 -7.4 79 0.0 25 15   96.96   -10 LegendNANA
11:00 -2.9 -7.4 71 0.0 25 13   96.97   -8 LegendNANA
12:00 -1.7 -6.7 69 0.0 25 12   96.97   -6 LegendNANA
13:00 -0.5 -5.8 67 0.0 26 17   96.96   -5 LegendNANA
14:00 0.8 -4.7 67 0.0 24 14   96.89     LegendNANA
15:00 1.5 -4.3 65 0.0 21 10   96.82     LegendNANA
16:00 0.5 -4.5 69 0.0 23 10   96.87     LegendNANA
17:00 -1.4 -5.0 77 0.0 22 8   96.90   -4 LegendNANA
18:00 -4.3 -6.1 87 0.0 16 5   96.86   -6 LegendNANA
19:00 -2.8 -5.0 85 0.0 17 15   96.76   -8 LegendNANA
20:00 -3.2 -5.5 84 0.0 17 13   96.71   -8 LegendNANA
21:00 -3.6 -6.1 83 0.0 33 LegendMM   96.65     LegendNANA
22:00 -3.1 -6.0 81 0.0 33 LegendMM   96.58     LegendNANA
23:00 -3.3 -6.3 80 0.0 33 LegendMM   96.53     LegendNANA

Notes on Data Quality.

Legend

  • E = Estimated
  • M = Missing
  • NA = Not Available*
  • [empty] = Indicates an unobserved value
Date modified: